Regional Weather Roundup
Issued by NWS

Home | Current Version | Previous Version | Graphics & Text | Print | Product List | Glossary On
Versions: 1 2 3 4 5 6 7 8 9 10 11 12 13 14 15 16 17 18 19 20 21 22 23 24 25 26 27 28 29 30 31 32 33 34 35 36 37 38 39 40 41 42 43 44 45 46 47 48 49 50
000
ASUS43 KBIS 180702
RWRND

NORTH DAKOTA REGIONAL WEATHER ROUNDUP
NATIONAL WEATHER SERVICE BISMARCK ND
100 AM CST MON DEC 18 2017

NOTE: "FAIR" INDICATES FEW OR NO CLOUDS BELOW 12,000 FEET WITH NO
SIGNIFICANT WEATHER AND/OR OBSTRUCTIONS TO VISIBILITY.


NDZ001>003-009>011-017-180800-
NORTHWEST NORTH DAKOTA

CITY           SKY/WX    TMP DP  RH WIND       PRES   REMARKS
WILLISTON      CLOUDY    35  23  61 SW10      29.63F
MINOT          PTCLDY    34  23  64 SW13      29.61F
MINOT AFB      CLOUDY    31  23  70 W14G20    29.59F
$$

NDZ018>021-031>035-040>046-180800-
SOUTHWEST NORTH DAKOTA

CITY           SKY/WX    TMP DP  RH WIND       PRES   REMARKS
BISMARCK       CLOUDY    33  24  69 W8        29.70F
DICKINSON      CLOUDY    32  19  58 W15       29.67F
GARRISON         N/A     29  23  78 W8        29.64F
HETTINGER ARPT CLOUDY    30  19  63 W14       29.74F WCI  19
$$

NDZ004>008-012>016-024-026-027-054-180800-
NORTHEAST NORTH DAKOTA

CITY           SKY/WX    TMP DP  RH WIND       PRES   REMARKS
GRAND FORKS    CLOUDY    28  25  88 S14       29.67F WCI  17
GRND FRKS AFB  CLOUDY    30  24  79 SW10      29.66F
DEVILS LAKE    PTCLDY    31  25  78 SW14      29.64F
$$

NDZ022-023-025-028>030-036>039-047>053-180800-
SOUTHEAST NORTH DAKOTA

CITY           SKY/WX    TMP DP  RH WIND       PRES   REMARKS
FARGO          CLOUDY    31  29  92 S13       29.75F
JAMESTOWN      CLOUDY    34  28  79 SW9       29.68F
$$





USA.gov is the U.S. government's official web portal to all federal, state and local government web resources and services.